Weather History for Harbor Springs, MI

Change the Weather History Date:

Thursday, April 18, 2013

  Actual Average (KPLN) Record (KPLN)
Temperature  
Mean Temperature 38 °F -  
Max Temperature 42 °F 53 °F 83 °F (1976)
Min Temperature 35 °F 31 °F 16 °F (1990)
Degree Days  
Heating Degree Days 26    
Moisture  
Dew Point 37 °F    
Average Humidity 94    
Maximum Humidity 97    
Minimum Humidity 88    
Precipitation  
Precipitation 0.00 in - - ()
Sea Level Pressure  
Sea Level Pressure 29.68 in    
Wind  
Wind Speed 11 mph (ENE)    
Max Wind Speed 17 mph    
Max Gust Speed 24 mph    
Visibility 8 miles    
Events Rain    
Averages and records for this station are not official NWS values.
T = Trace of Precipitation, MM = Missing Value Source: NWS Daily Summary

Daily Weather History Graph

Daily Weather History Graph

Search for Another Location

Airport:

Trip Planner

Search our weather history database for the weather conditions in past years. The results will help you decide how hot, cold, wet, or windy it might be!

Date:

Astronomy

Apr. 18, 2013 Rise Set
Actual Time 6:48 AM EDT 8:30 PM EDT
Civil Twilight 6:17 AM EDT 9:01 PM EDT
Nautical Twilight 5:39 AM EDT 9:39 PM EDT
Astronomical Twilight 4:58 AM EDT 10:20 PM EDT
Moon 12:56 PM EDT (4/18) 2:48 AM EDT (4/18)
Length of Visible Light 14h 43m
Length of Day
13h 41m
First Quarter, 51% of the Moon is Illuminated
Apr 18
First Quarter
Apr 25
Full
May 2
Last Quarter
May 9
New
May 18
First Quarter

Hourly Weather History & Observations

Time (EDT) Temp. Windchill Dew Point Humidity Pressure Visibility Wind Dir Wind Speed Gust Speed Precip Events Conditions
12:15 AM 35.6 °F 27.5 °F 32.4 °F 88% 30.09 in 7.0 mi ENE 11.5 mph 17.3 mph N/A   Overcast
12:35 AM 35.2 °F 26.2 °F 32.5 °F 90% 30.07 in 3.0 mi ENE 13.8 mph 17.3 mph N/A   Drizzle
12:55 AM 35.2 °F 26.6 °F 33.1 °F 92% 30.06 in 4.0 mi ENE 12.7 mph 17.3 mph N/A   Light Drizzle
1:15 AM 35.2 °F 27.1 °F 33.3 °F 92% 30.04 in 7.0 mi ENE 11.5 mph - N/A   Overcast
1:35 AM 35.2 °F 27.1 °F 33.4 °F 93% 30.04 in 10.0 mi ENE 11.5 mph - N/A   Overcast
1:55 AM 35.2 °F 26.2 °F 33.4 °F 93% 30.01 in 10.0 mi ENE 13.8 mph 18.4 mph N/A   Overcast
2:16 AM 35.4 °F 27.3 °F 33.6 °F 93% 30.00 in 10.0 mi ENE 11.5 mph 17.3 mph N/A   Overcast
2:35 AM 35.6 °F 27.5 °F 33.8 °F 93% 29.99 in 10.0 mi ENE 11.5 mph - N/A   Overcast
2:55 AM 36.0 °F 27.1 °F 34.2 °F 93% 29.97 in 10.0 mi ENE 13.8 mph - N/A   Overcast
3:15 AM 36.1 °F 27.3 °F 34.3 °F 93% 29.95 in 10.0 mi ENE 13.8 mph 19.6 mph N/A   Overcast
3:35 AM 36.1 °F 27.3 °F 34.3 °F 93% 29.94 in 10.0 mi ENE 13.8 mph - N/A   Overcast
3:55 AM 36.3 °F 27.5 °F 34.5 °F 93% 29.93 in 10.0 mi ENE 13.8 mph - N/A   Overcast
4:15 AM 36.9 °F 27.8 °F 35.2 °F 94% 29.91 in 10.0 mi ENE 15.0 mph - N/A   Overcast
4:35 AM 37.4 °F 28.5 °F 35.6 °F 93% 29.88 in 10.0 mi ENE 15.0 mph - N/A   Overcast
4:55 AM 37.4 °F 28.2 °F 36.0 °F 95% 29.86 in 10.0 mi ENE 16.1 mph 23.0 mph N/A   Overcast
5:15 AM 37.6 °F 28.8 °F 36.1 °F 95% 29.84 in 7.0 mi ENE 15.0 mph - N/A   Overcast
5:35 AM 37.6 °F 28.4 °F 36.1 °F 95% 29.83 in 7.0 mi ENE 16.1 mph 20.7 mph N/A   Overcast
5:55 AM 37.6 °F 28.1 °F 36.1 °F 95% 29.83 in 4.0 mi ENE 17.3 mph - N/A Rain Light Rain
6:15 AM 37.6 °F 28.4 °F 36.1 °F 95% 29.81 in 3.0 mi ENE 16.1 mph - N/A Rain Rain
6:35 AM 37.6 °F 28.8 °F 36.1 °F 95% 29.80 in 4.0 mi ENE 15.0 mph - N/A Rain Light Rain
6:55 AM 37.6 °F 28.8 °F 36.1 °F 95% 29.78 in 7.0 mi ENE 15.0 mph 21.9 mph N/A Rain Light Rain
7:15 AM 37.6 °F 28.1 °F 36.1 °F 95% 29.76 in 5.0 mi ENE 17.3 mph 23.0 mph N/A Rain Heavy Rain
7:35 AM 37.6 °F 28.4 °F 36.1 °F 95% 29.75 in 5.0 mi ENE 16.1 mph 21.9 mph N/A Rain Light Rain
7:55 AM 37.6 °F 28.4 °F 36.1 °F 95% 29.73 in 5.0 mi ENE 16.1 mph 21.9 mph N/A Rain Rain
8:15 AM 37.6 °F 28.4 °F 36.1 °F 95% 29.71 in 5.0 mi ENE 16.1 mph 24.2 mph N/A Rain Light Rain
8:35 AM 37.8 °F 29.0 °F 36.3 °F 95% 29.70 in 10.0 mi East 15.0 mph - N/A Rain Light Rain
8:55 AM 37.8 °F 29.8 °F 36.1 °F 94% 29.69 in 10.0 mi ENE 12.7 mph - N/A   Overcast
9:15 AM 37.8 °F 29.0 °F 36.3 °F 95% 29.68 in 10.0 mi East 15.0 mph 21.9 mph N/A   Overcast
9:35 AM 37.8 °F 29.4 °F 36.0 °F 93% 29.68 in 10.0 mi ENE 13.8 mph 19.6 mph N/A   Overcast
9:56 AM 37.8 °F 29.8 °F 36.0 °F 93% 29.68 in 7.0 mi ENE 12.7 mph 18.4 mph N/A   Drizzle
10:15 AM 37.8 °F 31.8 °F 36.1 °F 94% 29.68 in 4.0 mi East 8.1 mph - N/A   Drizzle
10:35 AM 37.8 °F 30.7 °F 36.5 °F 95% 29.66 in 2.0 mi ENE 10.4 mph - N/A Rain Rain
10:56 AM 37.8 °F 31.8 °F 36.5 °F 95% 29.65 in 7.0 mi ENE 8.1 mph - N/A Rain Rain
11:15 AM 37.9 °F 32.7 °F 36.5 °F 95% 29.65 in 10.0 mi NNE 6.9 mph - N/A   Light Drizzle
11:35 AM 37.9 °F 32.7 °F 36.3 °F 94% 29.65 in 10.0 mi NE 6.9 mph - N/A Rain Rain
11:55 AM 38.1 °F 32.9 °F 36.5 °F 94% 29.64 in 7.0 mi NE 6.9 mph - N/A Rain Rain
12:15 PM 37.9 °F 32.7 °F 36.5 °F 95% 29.63 in 3.0 mi NE 6.9 mph - N/A Rain Rain
12:35 PM 38.1 °F 34.6 °F 36.5 °F 94% 29.63 in 7.0 mi ENE 4.6 mph - N/A Rain Rain
12:55 PM 38.3 °F 31.9 °F 36.9 °F 95% 29.59 in 5.0 mi ENE 9.2 mph - N/A Rain Rain
1:15 PM 38.7 °F 32.4 °F 37.4 °F 95% 29.57 in 5.0 mi ENE 9.2 mph - N/A Rain Rain
1:35 PM 38.3 °F 31.4 °F 36.9 °F 95% 29.56 in 7.0 mi East 10.4 mph - N/A Rain Light Rain
1:55 PM 37.9 °F 31.5 °F 36.5 °F 95% 29.55 in 7.0 mi ENE 9.2 mph - N/A Rain Light Rain
2:15 PM 38.8 °F 31.6 °F 37.4 °F 95% 29.53 in 7.0 mi ENE 11.5 mph - N/A Rain Rain
2:35 PM 39.9 °F 32.5 °F 38.5 °F 95% 29.53 in 10.0 mi ENE 12.7 mph - N/A   Overcast
2:55 PM 40.1 °F - 38.3 °F 93% 29.57 in 10.0 mi Calm Calm - N/A   Overcast
3:15 PM 40.6 °F 36.7 °F 38.7 °F 93% 29.55 in 10.0 mi ENE 5.8 mph - N/A   Overcast
3:35 PM 41.4 °F 37.6 °F 39.2 °F 92% 29.54 in 10.0 mi ENE 5.8 mph - N/A   Overcast
3:55 PM 42.4 °F 38.8 °F 39.7 °F 90% 29.54 in 10.0 mi East 5.8 mph - N/A   Overcast
4:36 PM 41.4 °F - 39.0 °F 91% 29.56 in 10.0 mi Calm Calm - N/A   Overcast
4:55 PM 41.9 °F 38.2 °F 39.6 °F 91% 29.53 in 10.0 mi East 5.8 mph - N/A   Overcast
5:15 PM 41.9 °F - 39.4 °F 91% 29.55 in 10.0 mi Calm Calm - N/A   Overcast
5:36 PM 42.8 °F 40.1 °F 40.1 °F 90% 29.52 in 7.0 mi NE 4.6 mph - N/A   Drizzle
5:55 PM 42.8 °F - 40.6 °F 92% 29.55 in 5.0 mi Calm Calm - N/A   Overcast
6:15 PM 42.4 °F - 40.5 °F 93% 29.56 in 10.0 mi Calm Calm - N/A   Overcast
6:36 PM 41.5 °F 38.6 °F 40.1 °F 95% 29.54 in 5.0 mi East 4.6 mph - N/A   Drizzle
6:55 PM 41.4 °F 37.6 °F 40.1 °F 95% 29.54 in 10.0 mi ENE 5.8 mph - N/A   Overcast
7:15 PM 41.4 °F 37.6 °F 40.1 °F 95% 29.54 in 10.0 mi ENE 5.8 mph - N/A   Overcast
7:35 PM 41.4 °F 36.8 °F 40.1 °F 95% 29.54 in 10.0 mi East 6.9 mph - N/A   Overcast
7:55 PM 40.8 °F 36.2 °F 39.6 °F 95% 29.53 in 4.0 mi East 6.9 mph - N/A   Overcast
8:15 PM 40.1 °F 35.3 °F 38.8 °F 95% 29.53 in 10.0 mi East 6.9 mph - N/A   Overcast
8:35 PM 40.1 °F 34.1 °F 38.8 °F 95% 29.51 in 2.5 mi East 9.2 mph - N/A Rain Rain
8:55 PM 39.9 °F 35.1 °F 38.7 °F 95% 29.52 in 3.0 mi East 6.9 mph - N/A   Overcast
9:15 PM 40.1 °F 33.6 °F 39.2 °F 97% 29.50 in 5.0 mi ENE 10.4 mph - N/A   Overcast
9:35 PM 40.1 °F 34.1 °F 39.2 °F 97% 29.49 in 10.0 mi ENE 9.2 mph - N/A   Overcast
9:55 PM 40.5 °F 33.6 °F 39.4 °F 96% 29.48 in 10.0 mi ENE 11.5 mph - N/A   Overcast
10:16 PM 40.1 °F 33.2 °F 39.2 °F 97% 29.48 in 10.0 mi ENE 11.5 mph - N/A   Overcast
10:35 PM 40.1 °F 32.4 °F 39.2 °F 97% 29.47 in 10.0 mi ENE 13.8 mph - N/A   Overcast
10:55 PM 40.1 °F 33.2 °F 39.2 °F 97% 29.45 in 10.0 mi ENE 11.5 mph - N/A   Overcast
11:35 PM 40.1 °F 32.7 °F 39.2 °F 97% 29.42 in 7.0 mi ENE 12.7 mph - N/A   Overcast
11:55 PM 40.1 °F 31.6 °F 39.2 °F 97% 29.39 in 4.0 mi ENE 16.1 mph - N/A   Overcast